Regional Weather Roundup
Issued by NWS

Home | Current Version | Previous Version | Graphics & Text | Print | Product List | Glossary On
Versions: 1 2 3 4 5 6 7 8 9 10 11 12 13 14 15 16 17 18 19 20 21 22 23 24 25 26 27 28 29 30 31 32 33 34 35 36 37 38 39 40 41 42 43 44 45 46 47 48 49 50
000
ASUS43 KOAX 250210
RWRNE

WEATHER ROUNDUP FOR NEBRASKA
NATIONAL WEATHER SERVICE OMAHA NE
800 PM CST WED DEC 24 2014

NOTES: SATELLITE DATA IS BEING USED TO AUGMENT CLOUD COVER ABOVE
       12000 FEET.
       "FAIR" INDICATES FEW OR NO CLOUDS BELOW 12,000 FEET WITH NO
       SIGNIFICANT WEATHER AND/OR OBSTRUCTIONS TO VISIBILITY.

  * THESE STATIONS DO NOT REPORT WEATHER SUCH AS RAIN...SNOW OR FOG.

NEZ001>004-019>022-054>056-250300-
NEBRASKA PANHANDLE

CITY           SKY/WX    TMP DP  RH WIND       PRES   REMARKS
SCOTTSBLUFF    CLOUDY    38  28  67 S7        29.53F WCI  33
ALLIANCE       CLOUDY    32  25  75 S13       29.51F WCI  22
CHADRON        CLOUDY    29  22  75 CALM      29.48F
KIMBALL        CLOUDY    33  23  67 SW9       29.53F WCI  25
SIDNEY         MOCLDY    29  19  66 SW9       29.57F WCI  20
$$

NEZ057>060-069>072-079>082-250300-
SOUTHWEST NEBRASKA

CITY           SKY/WX    TMP DP  RH WIND       PRES   REMARKS
NORTH PLATTE   MOCLDY    33  23  66 CALM      29.59F
IMPERIAL       MOCLDY    34  24  67 SW8       29.60F WCI  27
LEXINGTON      MOCLDY    37  26  62 SW12      29.62F WCI  30
MCCOOK         PTCLDY    35  23  61 SW8       29.63F WCI  29
OGALLALA       PTCLDY    28  24  82 SW3       29.59S
$$

NEZ005>010-023>029-035>040-094-250300-
NORTH CENTRAL NEBRASKA

CITY           SKY/WX    TMP DP  RH WIND       PRES   REMARKS
VALENTINE      MOCLDY    31  24  75 CALM      29.52F
AINSWORTH      PTCLDY    30  23  76 S6        29.53F WCI  24
BROKEN BOW     MOCLDY    33  23  66 S5        29.59F WCI  29
O`NEILL        PTCLDY    29  24  84 S7        29.57F WCI  21
ORD            CLEAR     31  23  72 SW8       29.59F WCI  23
THEDFORD       PTCLDY    35  27  72 SW12      29.55F WCI  26
$$

NEZ041-046>049-061>064-073>077-083>087-250300-
SOUTH CENTRAL NEBRASKA

CITY           SKY/WX    TMP DP  RH WIND       PRES   REMARKS
GRAND ISLAND   PTCLDY    32  24  72 S8        29.65F WCI  25
AURORA         PTCLDY    32  23  71 S7        29.65F WCI  25
HASTINGS       CLEAR     32  21  64 S8        29.65F WCI  25
HEBRON         PTCLDY    33  24  70 S8        29.71F WCI  25
HOLDREGE       CLEAR     32  23  69 S8        29.64F WCI  25
KEARNEY *      CLEAR     30  23  74 S7        29.65F WCI  23
YORK           MOCLDY    32  27  80 S8        29.67F WCI  25
$$

NEZ011>018-030>034-042>045-250300-
NORTHEAST NEBRASKA

CITY           SKY/WX    TMP DP  RH WIND       PRES   REMARKS
NORFOLK        PTCLDY    25  22  88 E3        29.64F
ALBION         PTCLDY    31  24  76 S5        29.63F WCI  26
BLAIR          CLEAR     29  27  90 S9        29.70F WCI  21
COLUMBUS *     MOCLDY    30  21  69 S8        29.68S WCI  23
FREMONT        PTCLDY    30  28  93 SE7       29.71F WCI  23
TEKAMAH        CLEAR     30  27  88 S10       29.72F WCI  21
WAYNE          PTCLDY    26  24  93 S6        29.66F WCI  19
$$

NEZ050>053-065>068-078-088>093-250300-
SOUTHEAST NEBRASKA

CITY           SKY/WX    TMP DP  RH WIND       PRES   REMARKS
LINCOLN        CLEAR     28  26  92 S8        29.72F WCI  20
OMAHA EPPLEY   PTCLDY    30  26  85 S9        29.74F WCI  22
BEATRICE       CLEAR     29  28  93 S9        29.73F WCI  21
FALLS CITY     PTCLDY    30  26  85 S7        29.79F WCI  23
NEBRASKA CITY  CLEAR     29  29  99 S9        29.75F WCI  21
PLATTSMOUTH    CLEAR     29  26  89 S9        29.73F WCI  21
$$

NEZ044-045-051>053-067-250300-
OMAHA AREA

CITY           SKY/WX    TMP DP  RH WIND       PRES   REMARKS
OMAHA EPPLEY   PTCLDY    30  26  85 S9        29.74F WCI  22
BLAIR          CLEAR     29  27  90 S9        29.70F WCI  21
FREMONT        PTCLDY    30  28  93 SE7       29.71F WCI  23
MILLARD        CLEAR     29  26  89 SE5       29.73F WCI  24
OFFUTT AFB     CLEAR     29  26  90 S6        29.73F WCI  23
PLATTSMOUTH    CLEAR     29  26  89 S9        29.73F WCI  21
WAHOO          FAIR      28  26  89 S8        29.71F WCI  20
$$


USA.gov is the U.S. government's official web portal to all federal, state and local government web resources and services.